| time (UTC) | temp F | wind direction | speed MPH | gust MPH | rain 1hr in | rain 24hr in | rain mn in | humidity % | barometer mb |
| 20260508084927 | 71 | 10 | 2.0 | 7.0 | 0.00 | 0.00 | 0.00 | 85 | 1008.5 |
| 20260508084028 | 71 | 16 | 2.0 | 7.0 | 0.00 | 0.00 | 0.00 | 84 | 1008.6 |
| 20260508083128 | 71 | 17 | 1.0 | 6.0 | 0.00 | 0.00 | 0.00 | 84 | 1008.6 |
| 20260508082227 | 71 | 17 | 1.0 | 6.0 | 0.00 | 0.00 | 0.00 | 83 | 1008.5 |
| 20260508081328 | 72 | 17 | 1.0 | 7.0 | 0.00 | 0.00 | 0.00 | 83 | 1008.5 |
| 20260508080428 | 72 | 18 | 1.0 | 7.0 | 0.00 | 0.00 | 0.00 | 83 | 1008.5 |
| 20260508075528 | 72 | 54 | 2.0 | 5.0 | 0.00 | 0.00 | 0.00 | 83 | 1008.7 |
| 20260508074627 | 72 | 54 | 0.0 | 5.0 | 0.00 | 0.00 | 0.00 | 83 | 1008.7 |
| 20260508073727 | 72 | 0 | 0.0 | 0.0 | 0.00 | 0.00 | 0.00 | 83 | 1008.6 |
| 20260508072828 | 72 | 0 | 0.0 | 0.0 | 0.00 | 0.00 | 0.00 | 83 | 1008.6 |
| 20260508071927 | 72 | 0 | 0.0 | 0.0 | 0.00 | 0.00 | 0.00 | 83 | 1008.6 |
| 20260508071027 | 72 | 0 | 0.0 | 0.0 | 0.00 | 0.00 | 0.00 | 82 | 1008.7 |
| 20260508070127 | 72 | 0 | 0.0 | 0.0 | 0.00 | 0.00 | 0.00 | 83 | 1008.7 |
| 20260508063427 | 72 | 54 | 0.0 | 4.0 | 0.00 | 0.00 | 0.00 | 81 | 1008.8 |
| 20260508062527 | 72 | 54 | 0.0 | 4.0 | 0.00 | 0.00 | 0.00 | 81 | 1009.0 |
| 20260508061628 | 72 | 0 | 0.0 | 0.0 | 0.00 | 0.00 | 0.00 | 81 | 1009.0 |
| 20260508060727 | 72 | 0 | 0.0 | 0.0 | 0.00 | 0.00 | 0.00 | 80 | 1009.0 |
| 20260508055827 | 73 | 51 | 0.0 | 5.0 | 0.00 | 0.00 | 0.00 | 80 | 1009.0 |
| 20260508054927 | 73 | 44 | 0.0 | 6.0 | 0.00 | 0.00 | 0.00 | 80 | 1009.0 |
| 20260508054028 | 73 | 0 | 0.0 | 0.0 | 0.00 | 0.00 | 0.00 | 80 | 1009.0 |
| 20260508053127 | 73 | 37 | 0.0 | 4.0 | 0.00 | 0.00 | 0.00 | 80 | 1009.0 |
| 20260508052228 | 73 | 39 | 1.0 | 7.0 | 0.00 | 0.00 | 0.00 | 79 | 1008.6 |
| 20260508051327 | 74 | 49 | 0.0 | 5.0 | 0.00 | 0.00 | 0.00 | 80 | 1008.6 |
| 20260508050427 | 74 | 50 | 0.0 | 4.0 | 0.00 | 0.00 | 0.00 | 80 | 1008.6 |
| 20260508045527 | 74 | 49 | 0.0 | 5.0 | 0.00 | 0.00 | 0.00 | 79 | 1008.6 |
| 20260508044627 | 74 | 47 | 1.0 | 6.0 | 0.00 | 0.00 | 0.00 | 79 | 1008.6 |
| 20260508043727 | 74 | 69 | 1.0 | 6.0 | 0.00 | 0.00 | 0.00 | 79 | 1009.1 |
| 20260508040127 | 74 | 104 | 1.0 | 9.0 | 0.00 | 0.00 | 0.00 | 79 | 1008.6 |
| 20260508035227 | 75 | 78 | 1.0 | 9.0 | 0.00 | 0.00 | 0.00 | 78 | 1009.1 |
| 20260508034327 | 75 | 66 | 1.0 | 9.0 | 0.00 | 0.00 | 0.00 | 77 | 1009.1 |
| 20260508033427 | 75 | 0 | 0.0 | 0.0 | 0.00 | 0.00 | 0.00 | 77 | 1009.6 |
| 20260508032527 | 75 | 22 | 1.0 | 7.0 | 0.00 | 0.00 | 0.00 | 76 | 1009.6 |
| 20260508030728 | 75 | 39 | 1.0 | 10.0 | 0.00 | 0.00 | 0.00 | 76 | 1009.6 |
| 20260508025827 | 76 | 35 | 0.0 | 5.0 | 0.00 | 0.00 | 0.00 | 76 | 1009.6 |
| 20260508024927 | 76 | 36 | 1.0 | 9.0 | 0.00 | 0.00 | 0.00 | 75 | 1009.4 |
| 20260508024027 | 76 | 69 | 1.0 | 7.0 | 0.00 | 0.00 | 0.00 | 74 | 1009.4 |
| 20260508023127 | 76 | 48 | 2.0 | 9.0 | 0.00 | 0.00 | 0.00 | 74 | 1009.4 |
| 20260508022227 | 76 | 37 | 0.0 | 9.0 | 0.00 | 0.00 | 0.00 | 75 | 1009.3 |
| 20260508021327 | 76 | 35 | 0.0 | 5.0 | 0.00 | 0.00 | 0.00 | 75 | 1009.3 |
| 20260508020428 | 76 | 39 | 0.0 | 5.0 | 0.00 | 0.00 | 0.00 | 75 | 1009.1 |
| 20260508013727 | 76 | 63 | 1.0 | 7.0 | 0.00 | 0.00 | 0.00 | 77 | 1009.1 |
| 20260508012827 | 76 | 13 | 0.0 | 6.0 | 0.00 | 0.00 | 0.00 | 77 | 1009.1 |
| 20260508011927 | 76 | 10 | 0.0 | 5.0 | 0.00 | 0.00 | 0.00 | 78 | 1009.4 |
| 20260508011027 | 77 | 11 | 0.0 | 7.0 | 0.00 | 0.00 | 0.00 | 78 | 1009.3 |
| 20260508010127 | 77 | 12 | 2.0 | 10.0 | 0.00 | 0.00 | 0.00 | 78 | 1009.3 |
| 20260508003427 | 77 | 12 | 1.0 | 6.0 | 0.00 | 0.00 | 0.00 | 77 | 1009.1 |
| 20260508002527 | 77 | 10 | 0.0 | 3.0 | 0.00 | 0.00 | 0.00 | 78 | 1009.1 |
| 20260508001627 | 77 | 8 | 0.0 | 5.0 | 0.00 | 0.00 | 0.00 | 77 | 1009.1 |
| 20260508000727 | 78 | 7 | 0.0 | 5.0 | 0.00 | 0.00 | 0.00 | 77 | 1009.3 |
| 20260507235827 | 78 | 5 | 0.0 | 4.0 | 0.00 | 0.00 | 0.00 | 78 | 1009.3 |
| 20260507234927 | 78 | 28 | 2.0 | 6.0 | 0.00 | 0.00 | 0.00 | 77 | 1009.1 |
| 20260507234027 | 78 | 21 | 1.0 | 10.0 | 0.00 | 0.00 | 0.00 | 76 | 1008.9 |
| 20260507233128 | 78 | 35 | 1.0 | 11.0 | 0.00 | 0.00 | 0.00 | 76 | 1008.9 |
| 20260507232227 | 79 | 75 | 0.0 | 9.0 | 0.00 | 0.00 | 0.00 | 76 | 1009.0 |
| 20260507231327 | 79 | 0 | 0.0 | 0.0 | 0.00 | 0.00 | 0.00 | 75 | 1009.0 |
| 20260507230427 | 80 | 0 | 0.0 | 0.0 | 0.00 | 0.00 | 0.00 | 75 | 1008.7 |
| 20260507225527 | 80 | 0 | 0.0 | 0.0 | 0.00 | 0.00 | 0.00 | 74 | 1008.6 |
| 20260507224627 | 80 | 0 | 0.0 | 0.0 | 0.00 | 0.00 | 0.00 | 75 | 1008.6 |
| 20260507223727 | 80 | 0 | 0.0 | 0.0 | 0.00 | 0.00 | 0.00 | 75 | 1008.6 |
| 20260507222827 | 80 | 32 | 0.0 | 10.0 | 0.00 | 0.00 | 0.00 | 75 | 1008.6 |
| 20260507221927 | 80 | 105 | 0.0 | 6.0 | 0.00 | 0.00 | 0.00 | 74 | 1008.7 |
| 20260507221027 | 80 | 0 | 0.0 | 0.0 | 0.00 | 0.00 | 0.00 | 75 | 1009.0 |
| 20260507220127 | 80 | 12 | 0.0 | 7.0 | 0.00 | 0.00 | 0.00 | 76 | 1009.0 |
| 20260507215226 | 80 | 21 | 1.0 | 7.0 | 0.00 | 0.00 | 0.00 | 76 | 1009.0 |
| 20260507214327 | 80 | 38 | 1.0 | 9.0 | 0.00 | 0.00 | 0.00 | 75 | 1009.0 |
| 20260507212527 | 80 | 80 | 0.0 | 7.0 | 0.00 | 0.00 | 0.00 | 74 | 1009.1 |
| 20260507210727 | 80 | 0 | 0.0 | 0.0 | 0.00 | 0.00 | 0.00 | 74 | 1009.2 |
| 20260507205827 | 80 | 7 | 1.0 | 10.0 | 0.00 | 0.00 | 0.00 | 75 | 1009.2 |
| 20260507204927 | 79 | 0 | 0.0 | 0.0 | 0.00 | 0.00 | 0.00 | 74 | 1009.6 |
| 20260507204027 | 79 | 44 | 0.0 | 9.0 | 0.00 | 0.00 | 0.00 | 75 | 1009.8 |
| 20260507203127 | 78 | 13 | 1.0 | 8.0 | 0.00 | 0.00 | 0.00 | 75 | 1009.8 |
| 20260507202226 | 78 | 33 | 2.0 | 8.0 | 0.00 | 0.00 | 0.00 | 75 | 1009.6 |
| 20260507200427 | 78 | 30 | 3.0 | 11.0 | 0.00 | 0.00 | 0.00 | 76 | 1009.7 |
| 20260507195527 | 78 | 22 | 3.0 | 11.0 | 0.00 | 0.00 | 0.00 | 77 | 1010.1 |
| 20260507194627 | 77 | 18 | 2.0 | 13.0 | 0.00 | 0.00 | 0.00 | 77 | 1010.1 |
| 20260507193727 | 77 | 13 | 4.0 | 14.0 | 0.00 | 0.00 | 0.00 | 76 | 1010.3 |
| 20260507192827 | 77 | 14 | 5.0 | 14.0 | 0.00 | 0.00 | 0.00 | 76 | 1010.3 |
| 20260507191927 | 77 | 17 | 3.0 | 11.0 | 0.00 | 0.00 | 0.00 | 76 | 1010.6 |
| 20260507191026 | 77 | 21 | 4.0 | 14.0 | 0.00 | 0.00 | 0.00 | 77 | 1010.7 |
| 20260507190126 | 76 | 6 | 4.0 | 12.0 | 0.00 | 0.00 | 0.00 | 77 | 1010.7 |
| 20260507185227 | 76 | 12 | 2.0 | 12.0 | 0.00 | 0.00 | 0.00 | 77 | 1010.7 |
| 20260507184327 | 76 | 12 | 1.0 | 11.0 | 0.00 | 0.00 | 0.00 | 78 | 1010.7 |
| 20260507181627 | 74 | 7 | 3.0 | 13.0 | 0.00 | 0.00 | 0.00 | 80 | 1011.1 |
| 20260507180727 | 73 | 11 | 4.0 | 13.0 | 0.00 | 0.00 | 0.00 | 82 | 1011.2 |
| 20260507175826 | 72 | 10 | 4.0 | 13.0 | 0.00 | 0.00 | 0.00 | 81 | 1011.2 |
| 20260507174927 | 72 | 21 | 4.0 | 10.0 | 0.00 | 0.00 | 0.00 | 82 | 1011.5 |
| 20260507174027 | 71 | 12 | 2.0 | 10.0 | 0.00 | 0.00 | 0.00 | 82 | 1011.7 |
| 20260507173127 | 71 | 20 | 2.0 | 7.0 | 0.00 | 0.00 | 0.00 | 83 | 1011.7 |
| 20260507172227 | 70 | 29 | 3.0 | 9.0 | 0.00 | 0.00 | 0.00 | 82 | 1011.7 |
| 20260507165526 | 70 | 12 | 3.0 | 11.0 | 0.00 | 0.00 | 0.00 | 83 | 1011.7 |
| 20260507164626 | 69 | 24 | 4.0 | 11.0 | 0.00 | 0.00 | 0.00 | 83 | 1011.7 |
| 20260507163726 | 69 | 35 | 2.0 | 10.0 | 0.00 | 0.00 | 0.00 | 83 | 1011.5 |
| 20260507162827 | 69 | 13 | 6.0 | 14.0 | 0.00 | 0.00 | 0.00 | 85 | 1011.5 |
| 20260507161926 | 68 | 21 | 4.0 | 14.0 | 0.00 | 0.00 | 0.00 | 84 | 1011.4 |
| 20260507161027 | 67 | 25 | 5.0 | 13.0 | 0.00 | 0.00 | 0.00 | 87 | 1011.6 |
| 20260507155228 | 66 | 15 | 5.0 | 11.0 | 0.00 | 0.00 | 0.00 | 87 | 1011.7 |
| 20260507154326 | 66 | 22 | 5.0 | 12.0 | 0.00 | 0.00 | 0.00 | 88 | 1011.7 |
| 20260507153426 | 66 | 16 | 4.0 | 10.0 | 0.00 | 0.00 | 0.00 | 88 | 1011.8 |
| 20260507151626 | 66 | 18 | 4.0 | 10.0 | 0.00 | 0.00 | 0.00 | 88 | 1011.8 |
| 20260507150727 | 66 | 12 | 3.0 | 10.0 | 0.00 | 0.00 | 0.00 | 89 | 1011.8 |
| 20260507144926 | 66 | 29 | 4.0 | 10.0 | 0.00 | 0.00 | 0.00 | 89 | 1011.5 |
| 20260507144026 | 66 | 25 | 6.0 | 14.0 | 0.00 | 0.00 | 0.00 | 88 | 1011.2 |
| 20260507142226 | 66 | 23 | 4.0 | 12.0 | 0.00 | 0.00 | 0.00 | 89 | 1011.2 |
| 20260507141327 | 66 | 17 | 7.0 | 14.0 | 0.00 | 0.00 | 0.00 | 89 | 1011.2 |
| 20260507140426 | 66 | 22 | 6.0 | 15.0 | 0.00 | 0.00 | 0.00 | 89 | 1011.2 |
| 20260507135526 | 66 | 14 | 6.0 | 16.0 | 0.00 | 0.00 | 0.00 | 88 | 1011.4 |
| 20260507134626 | 66 | 35 | 4.0 | 13.0 | 0.00 | 0.00 | 0.00 | 88 | 1011.4 |
| 20260507133726 | 66 | 28 | 4.0 | 9.0 | 0.00 | 0.00 | 0.00 | 88 | 1011.6 |
| 20260507132826 | 66 | 12 | 5.0 | 13.0 | 0.00 | 0.00 | 0.00 | 88 | 1011.6 |
| 20260507131926 | 66 | 17 | 6.0 | 14.0 | 0.00 | 0.00 | 0.00 | 88 | 1011.6 |
| 20260507131027 | 66 | 16 | 5.0 | 14.0 | 0.00 | 0.00 | 0.00 | 88 | 1011.6 |
| 20260507130126 | 67 | 1 | 5.0 | 13.0 | 0.00 | 0.00 | 0.00 | 89 | 1011.6 |
| 20260507125226 | 67 | 9 | 6.0 | 11.0 | 0.00 | 0.00 | 0.00 | 89 | 1011.0 |
| 20260507124326 | 67 | 5 | 5.0 | 11.0 | 0.00 | 0.00 | 0.00 | 89 | 1011.0 |
| 20260507123428 | 67 | 11 | 6.0 | 13.0 | 0.00 | 0.00 | 0.00 | 90 | 1010.5 |
| 20260507121626 | 68 | 15 | 6.0 | 12.0 | 0.00 | 0.00 | 0.00 | 90 | 1010.5 |
| 20260507120726 | 68 | 19 | 4.0 | 11.0 | 0.00 | 0.00 | 0.00 | 89 | 1010.2 |
| 20260507115827 | 68 | 8 | 4.0 | 10.0 | 0.00 | 0.00 | 0.00 | 89 | 1010.2 |
| 20260507114927 | 68 | 25 | 3.0 | 8.0 | 0.00 | 0.00 | 0.00 | 90 | 1009.7 |
| 20260507114027 | 68 | 26 | 3.0 | 10.0 | 0.00 | 0.00 | 0.00 | 90 | 1009.6 |
| 20260507113126 | 68 | 19 | 3.0 | 11.0 | 0.00 | 0.00 | 0.00 | 89 | 1009.6 |
| 20260507112227 | 68 | 17 | 3.0 | 9.0 | 0.00 | 0.00 | 0.00 | 90 | 1009.3 |
| 20260507111326 | 68 | 6 | 2.0 | 9.0 | 0.00 | 0.00 | 0.00 | 90 | 1009.3 |
| 20260507110426 | 68 | 17 | 2.0 | 10.0 | 0.00 | 0.00 | 0.00 | 89 | 1009.1 |
| 20260507105526 | 68 | 23 | 1.0 | 10.0 | 0.00 | 0.00 | 0.00 | 90 | 1009.2 |
| 20260507104627 | 68 | 7 | 1.0 | 6.0 | 0.00 | 0.00 | 0.00 | 90 | 1009.2 |
| 20260507103727 | 68 | 12 | 4.0 | 9.0 | 0.00 | 0.00 | 0.00 | 90 | 1009.1 |
| 20260507101927 | 69 | 18 | 3.0 | 10.0 | 0.00 | 0.00 | 0.00 | 89 | 1009.0 |
| 20260507101026 | 69 | 10 | 1.0 | 6.0 | 0.00 | 0.00 | 0.00 | 89 | 1008.8 |
| 20260507100126 | 69 | 10 | 2.0 | 7.0 | 0.00 | 0.00 | 0.00 | 89 | 1008.8 |
| 20260507095226 | 69 | 5 | 2.0 | 9.0 | 0.00 | 0.00 | 0.00 | 89 | 1008.6 |
| 20260507094327 | 69 | 19 | 2.0 | 9.0 | 0.00 | 0.00 | 0.00 | 89 | 1008.6 |
| 20260507090726 | 69 | 18 | 5.0 | 14.0 | 0.00 | 0.00 | 0.00 | 87 | 1008.5 |
| 20260507085827 | 69 | 19 | 5.0 | 12.0 | 0.00 | 0.00 | 0.00 | 87 | 1008.5 |